BAW964U EGLL-EDDH

Flight info

Callsign BAW964U
Flight time 1h 12m
Altitude 37000
Route BPK Q295 SOMVA DCT MAVAS DCT GASTU DCT OSTOR/N0385F230 T904 RIBSO RIBSO3S
Aircraft A21N/M-SDE2E3FGHIRWXY/LB1

Departure

Time 2026-04-25 18:48
Airport London Heathrow Airport (EGLL)

Arrival

Time 2026-04-25 20:00
Airport Hamburg Helmut Schmidt Airport (EDDH)
Time Latitude Longitude Altitude Speed Heading
2026-04-25 18:12 51.47400 -0.48757 91 ft 0 kts 179°
2026-04-25 18:13 51.47409 -0.48829 93 ft 0 kts 180°
2026-04-25 18:38 51.47420 -0.48829 91 ft 4 kts 180°
2026-04-25 18:38 51.47446 -0.48829 91 ft 3 kts 180°
2026-04-25 18:38 51.47468 -0.48832 92 ft 4 kts 158°
2026-04-25 18:38 51.47485 -0.48856 93 ft 4 kts 108°
2026-04-25 18:39 51.47491 -0.48894 91 ft 3 kts 103°
2026-04-25 18:39 51.47492 -0.48901 91 ft 0 kts 103°
2026-04-25 18:43 51.47491 -0.48899 91 ft 1 kts 103°
2026-04-25 18:43 51.47487 -0.48865 92 ft 5 kts 102°
2026-04-25 18:44 51.47486 -0.48784 93 ft 9 kts 87°
2026-04-25 18:44 51.47488 -0.48658 94 ft 13 kts 89°
2026-04-25 18:44 51.47475 -0.48495 94 ft 17 kts 141°
2026-04-25 18:44 51.47348 -0.48477 91 ft 20 kts 177°
2026-04-25 18:45 51.47282 -0.48475 91 ft 1 kts 184°
2026-04-25 18:45 51.47274 -0.48475 91 ft 0 kts 180°
2026-04-25 18:45 51.47255 -0.48474 91 ft 6 kts 180°
2026-04-25 18:45 51.47193 -0.48474 91 ft 12 kts 181°
2026-04-25 18:46 51.47087 -0.48471 95 ft 18 kts 180°
2026-04-25 18:46 51.46947 -0.48471 92 ft 22 kts 182°
2026-04-25 18:46 51.46846 -0.48471 94 ft 11 kts 179°
2026-04-25 18:46 51.46749 -0.48469 92 ft 14 kts 181°
2026-04-25 18:47 51.46640 -0.48468 92 ft 17 kts 180°
2026-04-25 18:47 51.46512 -0.48465 92 ft 17 kts 177°
2026-04-25 18:47 51.46479 -0.48344 93 ft 14 kts 88°
2026-04-25 18:47 51.46473 -0.47968 95 ft 60 kts 88°
2026-04-25 18:48 51.46485 -0.46916 97 ft 126 kts 89°
2026-04-25 18:48 51.46495 -0.45210 115 ft 174 kts 88°
2026-04-25 18:48 51.46515 -0.43294 734 ft 173 kts 88°
2026-04-25 18:48 51.46525 -0.41280 1245 ft 189 kts 89°
2026-04-25 18:49 51.46889 -0.39229 1732 ft 201 kts 52°
2026-04-25 18:49 51.47915 -0.37549 2122 ft 224 kts 44°
2026-04-25 18:49 51.49053 -0.35662 2720 ft 249 kts 47°
2026-04-25 18:49 51.50244 -0.33541 3655 ft 256 kts 49°
2026-04-25 18:50 51.51430 -0.31373 4649 ft 261 kts 49°
2026-04-25 18:50 51.52455 -0.28953 5374 ft 265 kts 64°
2026-04-25 18:50 51.53125 -0.26170 5750 ft 268 kts 70°
2026-04-25 18:50 51.53735 -0.23331 5918 ft 269 kts 70°
2026-04-25 18:51 51.54352 -0.20493 6209 ft 269 kts 68°
2026-04-25 18:51 51.54607 -0.19562 6382 ft 270 kts 59°
2026-04-25 18:51 51.57113 -0.16834 7777 ft 273 kts
2026-04-25 18:51 51.59009 -0.16968 8723 ft 276 kts 349°
2026-04-25 18:52 51.60932 -0.17218 9675 ft 282 kts
2026-04-25 18:52 51.62847 -0.16451 10587 ft 289 kts 15°
2026-04-25 18:52 51.64843 -0.15474 11041 ft 312 kts 15°
2026-04-25 18:52 51.67003 -0.14426 11400 ft 337 kts 15°
2026-04-25 18:53 51.69309 -0.13327 11751 ft 354 kts 15°
2026-04-25 18:53 51.71658 -0.11810 12391 ft 368 kts 28°
2026-04-25 18:53 51.73666 -0.09262 13221 ft 376 kts 45°
2026-04-25 18:53 51.75122 -0.05791 13881 ft 376 kts 64°
2026-04-25 18:54 51.76108 0.02703 14292 ft 387 kts 82°
2026-04-25 18:54 51.76441 0.07011 14275 ft 387 kts 81°
2026-04-25 18:54 51.76675 0.09863 14259 ft 388 kts 81°
2026-04-25 18:55 51.77038 0.14234 14253 ft 400 kts 81°
2026-04-25 18:55 51.77401 0.18645 14241 ft 388 kts 81°
2026-04-25 18:55 51.77751 0.22946 14235 ft 386 kts 81°
2026-04-25 18:55 51.78102 0.27260 14238 ft 389 kts 81°
2026-04-25 18:56 51.78450 0.31603 14241 ft 388 kts 81°
2026-04-25 18:56 51.78805 0.35913 14238 ft 389 kts 81°
2026-04-25 18:56 51.79157 0.40342 14242 ft 405 kts 82°
2026-04-25 18:56 51.79502 0.44743 14255 ft 388 kts 81°
2026-04-25 18:57 51.79844 0.49059 14815 ft 389 kts 81°
2026-04-25 18:57 51.80188 0.53411 15518 ft 392 kts 81°
2026-04-25 18:57 51.80534 0.57806 16006 ft 396 kts 81°
2026-04-25 18:57 51.80763 0.60733 16157 ft 397 kts 81°
2026-04-25 18:58 51.81493 0.66571 16233 ft 396 kts 70°
2026-04-25 18:58 51.83573 0.74798 16791 ft 398 kts 65°
2026-04-25 18:58 51.84662 0.78928 17467 ft 402 kts 65°
2026-04-25 18:59 51.86851 0.87341 18732 ft 410 kts 65°
2026-04-25 18:59 51.89065 0.95936 19827 ft 418 kts 65°
2026-04-25 19:00 51.91314 1.04709 20923 ft 425 kts 66°
2026-04-25 19:00 51.92448 1.09154 21467 ft 429 kts 66°
2026-04-25 19:01 51.94744 1.18168 22580 ft 437 kts 66°
2026-04-25 19:01 51.95906 1.22742 23132 ft 440 kts 66°
2026-04-25 19:01 51.97076 1.27354 23687 ft 444 kts 66°
2026-04-25 19:01 51.98250 1.31996 24155 ft 448 kts 66°
2026-04-25 19:02 52.00347 1.41591 25103 ft 455 kts 74°
2026-04-25 19:02 52.01106 1.46588 25563 ft 458 kts 76°
2026-04-25 19:02 52.01830 1.51628 26038 ft 460 kts 76°
2026-04-25 19:03 52.03029 1.60078 26798 ft 464 kts 76°
2026-04-25 19:03 52.04001 1.66934 27402 ft 467 kts 76°
2026-04-25 19:03 52.04735 1.72087 27833 ft 469 kts 76°
2026-04-25 19:04 52.06213 1.82447 28732 ft 471 kts 76°
2026-04-25 19:04 52.06950 1.87621 29269 ft 469 kts 76°
2026-04-25 19:05 52.08416 1.97923 30325 ft 467 kts 77°
2026-04-25 19:05 52.09875 2.08105 31228 ft 464 kts 76°
2026-04-25 19:05 52.10611 2.13274 31651 ft 463 kts 76°
2026-04-25 19:06 52.11324 2.18304 32066 ft 462 kts 76°
2026-04-25 19:06 52.12753 2.28485 32887 ft 461 kts 76°
2026-04-25 19:06 52.13459 2.33565 33281 ft 460 kts 76°
2026-04-25 19:07 52.14858 2.43714 34029 ft 459 kts 76°
2026-04-25 19:07 52.15553 2.48783 34354 ft 458 kts 77°
2026-04-25 19:08 52.16986 2.58895 34920 ft 458 kts 72°
2026-04-25 19:08 52.18275 2.63611 35158 ft 456 kts 58°
2026-04-25 19:09 52.23582 2.76465 35283 ft 455 kts 54°
2026-04-25 19:09 52.24753 2.79301 35278 ft 455 kts 55°
2026-04-25 19:10 52.30578 2.93620 35271 ft 453 kts 55°
2026-04-25 19:10 52.34047 3.02204 35269 ft 453 kts 55°
2026-04-25 19:11 52.37511 3.10809 35275 ft 453 kts 55°
2026-04-25 19:11 52.40723 3.19677 35270 ft 454 kts 64°
2026-04-25 19:12 52.43358 3.29007 35274 ft 454 kts 64°
2026-04-25 19:12 52.45997 3.38418 35271 ft 454 kts 64°
2026-04-25 19:13 52.48634 3.47832 35276 ft 454 kts 64°
2026-04-25 19:13 52.51257 3.57236 35272 ft 453 kts 64°
2026-04-25 19:14 52.53870 3.66640 35274 ft 453 kts 64°
2026-04-25 19:14 52.56476 3.76064 35275 ft 453 kts 64°
2026-04-25 19:15 52.59076 3.85496 35276 ft 453 kts 64°
2026-04-25 19:15 52.61666 3.94933 35276 ft 453 kts 64°
2026-04-25 19:16 52.64251 4.04391 35272 ft 453 kts 64°
2026-04-25 19:16 52.66826 4.13846 35270 ft 452 kts 64°
2026-04-25 19:17 52.69395 4.23314 35273 ft 453 kts 64°
2026-04-25 19:17 52.71956 4.32794 35275 ft 452 kts 64°
2026-04-25 19:18 52.74505 4.42278 35268 ft 453 kts 64°
2026-04-25 19:18 52.77052 4.51788 35250 ft 453 kts 64°
2026-04-25 19:19 52.79589 4.61302 35254 ft 453 kts 64°
2026-04-25 19:19 52.82120 4.70827 35263 ft 453 kts 64°
2026-04-25 19:20 52.84641 4.80369 35263 ft 453 kts 64°
2026-04-25 19:20 52.87157 4.89922 35262 ft 453 kts 64°
2026-04-25 19:21 52.89666 4.99487 35261 ft 453 kts 64°
2026-04-25 19:21 52.93415 5.13861 35265 ft 454 kts 64°
2026-04-25 19:22 52.95906 5.23461 35264 ft 453 kts 64°
2026-04-25 19:23 52.99625 5.37871 35259 ft 453 kts 64°
2026-04-25 19:23 53.03312 5.52246 35247 ft 453 kts 64°
2026-04-25 19:24 53.05761 5.61883 35249 ft 453 kts 65°
2026-04-25 19:25 53.08649 5.82165 35215 ft 436 kts 74°
2026-04-25 19:25 53.09989 5.91957 35224 ft 433 kts 74°
2026-04-25 19:26 53.11325 6.01717 35232 ft 431 kts 74°
2026-04-25 19:26 53.12652 6.11454 35229 ft 431 kts 74°
2026-04-25 19:27 53.13535 6.17966 35230 ft 432 kts 74°
2026-04-25 19:27 53.15282 6.30958 35222 ft 432 kts 74°
2026-04-25 19:28 53.16584 6.40725 35215 ft 432 kts 74°
2026-04-25 19:28 53.17878 6.50495 35216 ft 432 kts 74°
2026-04-25 19:29 53.19164 6.60270 35228 ft 432 kts 74°
2026-04-25 19:29 53.20443 6.70059 35233 ft 432 kts 74°
2026-04-25 19:30 53.21717 6.79874 35224 ft 433 kts 74°
2026-04-25 19:30 53.22983 6.89691 35218 ft 433 kts 74°
2026-04-25 19:31 53.24241 6.99524 35203 ft 433 kts 74°
2026-04-25 19:31 53.25490 7.09358 35202 ft 433 kts 74°
2026-04-25 19:32 53.26738 7.19232 35223 ft 440 kts 74°
2026-04-25 19:32 53.27369 7.24255 34905 ft 443 kts 73°
2026-04-25 19:32 53.27575 7.25897 34810 ft 444 kts 73°
2026-04-25 19:33 53.28632 7.34381 34371 ft 446 kts 73°
2026-04-25 19:33 53.29262 7.39458 34127 ft 447 kts 74°
2026-04-25 19:33 53.29891 7.44549 33849 ft 448 kts 74°
2026-04-25 19:33 53.30520 7.49656 33566 ft 449 kts 74°
2026-04-25 19:34 53.31147 7.54777 33295 ft 450 kts 74°
2026-04-25 19:34 53.31775 7.59911 33032 ft 451 kts 74°
2026-04-25 19:34 53.32403 7.65057 32760 ft 453 kts 74°
2026-04-25 19:34 53.33030 7.70222 32497 ft 454 kts 74°
2026-04-25 19:35 53.33656 7.75400 32257 ft 455 kts 73°
2026-04-25 19:35 53.34276 7.80541 32002 ft 457 kts 73°
2026-04-25 19:35 53.34902 7.85763 31741 ft 458 kts 73°
2026-04-25 19:35 53.35527 7.90998 31488 ft 460 kts 73°
2026-04-25 19:36 53.36153 7.96258 31237 ft 461 kts 73°
2026-04-25 19:36 53.36777 8.01527 30991 ft 462 kts 73°
2026-04-25 19:36 53.37409 8.06888 30736 ft 464 kts 74°
2026-04-25 19:36 53.38025 8.12120 30496 ft 465 kts 74°
2026-04-25 19:37 53.38647 8.17437 30254 ft 466 kts 74°
2026-04-25 19:37 53.39268 8.22767 29978 ft 465 kts 74°
2026-04-25 19:37 53.39873 8.28007 29693 ft 452 kts 73°
2026-04-25 19:37 53.40461 8.33109 29399 ft 439 kts 73°
2026-04-25 19:38 53.41030 8.38075 29111 ft 430 kts 73°
2026-04-25 19:38 53.41595 8.42977 28832 ft 427 kts 73°
2026-04-25 19:38 53.42157 8.47851 28551 ft 425 kts 73°
2026-04-25 19:38 53.42713 8.52712 28286 ft 423 kts 73°
2026-04-25 19:39 53.43260 8.57546 28034 ft 422 kts 73°
2026-04-25 19:39 53.43805 8.62375 27776 ft 421 kts 72°
2026-04-25 19:39 53.44348 8.67196 27520 ft 420 kts 72°
2026-04-25 19:39 53.44888 8.72006 27252 ft 419 kts 72°
2026-04-25 19:40 53.45422 8.76799 26997 ft 417 kts 72°
2026-04-25 19:40 53.45953 8.81571 26763 ft 416 kts 72°
2026-04-25 19:40 53.46482 8.86340 26454 ft 415 kts 72°
2026-04-25 19:40 53.47005 8.91086 25927 ft 413 kts 72°
2026-04-25 19:41 53.47526 8.95817 25352 ft 411 kts 72°
2026-04-25 19:41 53.48044 9.00533 24766 ft 411 kts 72°
2026-04-25 19:41 53.48392 9.03722 24372 ft 410 kts 72°
2026-04-25 19:41 53.48732 9.06836 23988 ft 410 kts 72°
2026-04-25 19:42 53.49580 9.14652 22895 ft 409 kts 72°
2026-04-25 19:42 53.49915 9.17764 22456 ft 408 kts 72°
2026-04-25 19:42 53.50426 9.22508 21779 ft 407 kts 72°
2026-04-25 19:42 53.50924 9.27160 21136 ft 404 kts 72°
2026-04-25 19:43 53.51415 9.31773 20470 ft 397 kts 72°
2026-04-25 19:43 53.51886 9.36224 19869 ft 388 kts 71°
2026-04-25 19:43 53.52353 9.40651 19256 ft 381 kts 71°
2026-04-25 19:43 53.52812 9.44995 18660 ft 374 kts 71°
2026-04-25 19:44 53.53264 9.49273 18153 ft 370 kts 71°
2026-04-25 19:44 53.53712 9.53524 17804 ft 368 kts 71°
2026-04-25 19:44 53.54155 9.57748 17425 ft 366 kts 71°
2026-04-25 19:44 53.54529 9.61976 16978 ft 371 kts 80°
2026-04-25 19:45 53.54223 9.66332 16525 ft 383 kts 101°
2026-04-25 19:45 53.53077 9.70425 16110 ft 392 kts 122°
2026-04-25 19:45 53.51202 9.73762 15729 ft 394 kts 143°
2026-04-25 19:45 53.48825 9.75946 15387 ft 388 kts 164°
2026-04-25 19:46 53.46247 9.77115 15071 ft 382 kts 172°
2026-04-25 19:46 53.43651 9.78013 14729 ft 379 kts 174°
2026-04-25 19:46 53.41072 9.78860 14391 ft 377 kts 174°
2026-04-25 19:46 53.38502 9.79694 14067 ft 375 kts 174°
2026-04-25 19:47 53.35947 9.80522 13714 ft 373 kts 174°
2026-04-25 19:47 53.33402 9.81346 13321 ft 370 kts 174°
2026-04-25 19:47 53.30895 9.82158 12951 ft 366 kts 174°
2026-04-25 19:47 53.28410 9.82966 12591 ft 361 kts 174°
2026-04-25 19:48 53.25991 9.83947 12335 ft 357 kts 162°
2026-04-25 19:48 53.23890 9.86048 12139 ft 350 kts 139°
2026-04-25 19:48 53.22351 9.89130 11729 ft 345 kts 116°
2026-04-25 19:48 53.21551 9.92828 11264 ft 335 kts 93°
2026-04-25 19:49 53.21570 9.96598 10844 ft 318 kts 69°
2026-04-25 19:49 53.22023 9.98874 10571 ft 304 kts 54°
2026-04-25 19:49 53.23501 10.02773 10041 ft 295 kts 45°
2026-04-25 19:49 53.24685 10.05529 9767 ft 288 kts 44°
2026-04-25 19:50 53.26966 10.10830 9206 ft 277 kts 44°
2026-04-25 19:50 53.28087 10.13426 8831 ft 275 kts 44°
2026-04-25 19:50 53.29205 10.16000 8446 ft 272 kts 44°
2026-04-25 19:51 53.30384 10.18414 7947 ft 260 kts 30°
2026-04-25 19:51 53.31865 10.19924 7497 ft 244 kts 16°
2026-04-25 19:51 53.33401 10.21065 7007 ft 240 kts 14°
2026-04-25 19:51 53.34935 10.22138 6527 ft 238 kts 14°
2026-04-25 19:52 53.36490 10.22789 6036 ft 224 kts 352°
2026-04-25 19:52 53.37929 10.22246 5704 ft 204 kts 336°
2026-04-25 19:52 53.39144 10.21255 5420 ft 185 kts 326°
2026-04-25 19:52 53.40153 10.20092 5135 ft 167 kts 325°
2026-04-25 19:53 53.41069 10.19041 4631 ft 156 kts 326°
2026-04-25 19:53 53.41973 10.18040 4000 ft 156 kts 327°
2026-04-25 19:53 53.42891 10.17027 3407 ft 162 kts 327°
2026-04-25 19:53 53.43855 10.16023 3121 ft 165 kts 333°
2026-04-25 19:54 53.44891 10.15196 3125 ft 165 kts 333°
2026-04-25 19:54 53.45914 10.14326 3149 ft 165 kts 333°
2026-04-25 19:54 53.46935 10.13452 3168 ft 165 kts 333°
2026-04-25 19:54 53.47610 10.12874 3180 ft 165 kts 332°
2026-04-25 19:55 53.48928 10.11743 3164 ft 146 kts 332°
2026-04-25 19:55 53.49816 10.10975 3081 ft 143 kts 332°
2026-04-25 19:55 53.50698 10.10224 2871 ft 142 kts 332°
2026-04-25 19:55 53.51573 10.09471 2664 ft 141 kts 331°
2026-04-25 19:56 53.52410 10.08753 2465 ft 123 kts 331°
2026-04-25 19:56 53.53097 10.08161 2276 ft 106 kts 330°
2026-04-25 19:56 53.53756 10.07594 2142 ft 107 kts 330°
2026-04-25 19:56 53.54420 10.07024 2006 ft 107 kts 330°
2026-04-25 19:57 53.55075 10.06460 1861 ft 107 kts 330°
2026-04-25 19:57 53.55753 10.05876 1703 ft 109 kts 330°
2026-04-25 19:57 53.56425 10.05295 1547 ft 108 kts 330°
2026-04-25 19:57 53.57091 10.04721 1398 ft 108 kts 330°
2026-04-25 19:58 53.57748 10.04161 1251 ft 106 kts 330°
2026-04-25 19:58 53.58410 10.03593 1094 ft 107 kts 329°
2026-04-25 19:58 53.59077 10.03011 939 ft 110 kts 329°
2026-04-25 19:58 53.59774 10.02414 773 ft 115 kts 329°
2026-04-25 19:59 53.60478 10.01803 599 ft 114 kts 328°
2026-04-25 19:59 53.61191 10.01195 430 ft 116 kts 329°
2026-04-25 19:59 53.61913 10.00572 275 ft 119 kts 329°
2026-04-25 19:59 53.62639 9.99945 149 ft 115 kts 328°
2026-04-25 20:00 53.63338 9.99335 52 ft 105 kts 332°
2026-04-25 20:00 53.63697 9.99027 53 ft 65 kts 332°
2026-04-25 20:00 53.63944 9.98819 55 ft 0 kts 340°
2026-04-25 20:00 53.63947 9.98818 55 ft 0 kts 346°
2026-04-25 20:01 53.63938 9.98929 54 ft 11 kts 120°
2026-04-25 20:01 53.63886 9.99060 54 ft 16 kts 127°
2026-04-25 20:01 53.63818 9.99219 53 ft 18 kts 126°
2026-04-25 20:02 53.63741 9.99397 54 ft 20 kts 126°
2026-04-25 20:02 53.63656 9.99593 54 ft 22 kts 127°
2026-04-25 20:02 53.63608 9.99705 55 ft 0 kts 124°
2026-04-25 20:03 53.63606 9.99710 53 ft 2 kts 124°
2026-04-25 20:04 53.63587 9.99756 55 ft 7 kts 124°
2026-04-25 20:04 53.63548 9.99850 54 ft 11 kts 125°
2026-04-25 20:04 53.63497 9.99972 55 ft 14 kts 126°
2026-04-25 20:04 53.63436 10.00113 54 ft 16 kts 127°
2026-04-25 20:05 53.63345 10.00229 52 ft 18 kts 173°
2026-04-25 20:05 53.63210 10.00246 54 ft 21 kts 178°
2026-04-25 20:05 53.63082 10.00259 54 ft 7 kts 176°
2026-04-25 20:05 53.63029 10.00220 54 ft 10 kts 212°
2026-04-25 20:06 53.62987 10.00188 51 ft 6 kts 168°
2026-04-25 20:06 53.62956 10.00252 54 ft 9 kts 121°
2026-04-25 20:06 53.62943 10.00287 52 ft 0 kts 122°